EW4939 Weather Reports


Display with metric or nautical units.
time (UTC)temp
F
wind
direction
speed
MPH
gust
MPH
rain 1hr
in
rain 24hr
in
rain mn
in
humidity
%
barometer
mb
20260504190403 69 294 2.0 3.0 0.00 0.00 0.00 62 1009.5
20260504185859 68 179 1.0 2.0 0.00 0.00 0.00 64 1009.2
20260504185357 68 164 1.0 2.0 0.00 0.00 0.00 64 1009.1
20260504184852 68 183 0.0 1.0 0.00 0.00 0.00 64 1009.4
20260504184348 68 204 2.0 4.0 0.00 0.00 0.00 62 1009.5
20260504183844 69 286 0.0 3.0 0.00 0.00 0.00 60 1009.5
20260504183342 69 217 1.0 2.0 0.00 0.00 0.00 61 1009.4
20260504182839 69 178 2.0 3.0 0.00 0.00 0.00 60 1009.4
20260504182337 69 276 3.0 7.0 0.00 0.00 0.00 59 1009.5
20260504181833 69 222 3.0 8.0 0.00 0.00 0.00 59 1009.3
20260504181331 69 159 7.0 9.0 0.00 0.00 0.00 58 1009.2
20260504180830 70 188 2.0 4.0 0.00 0.00 0.00 58 1009.0
20260504180328 70 312 3.0 6.0 0.00 0.00 0.00 56 1009.0
20260504175826 71 185 4.0 7.0 0.00 0.00 0.00 56 1009.0
20260504175322 71 141 2.0 7.0 0.00 0.00 0.00 58 1008.5
20260504174821 71 174 4.0 6.0 0.00 0.00 0.00 57 1008.4
20260504174318 70 199 4.0 11.0 0.00 0.00 0.00 56 1008.4
20260504173814 70 178 7.0 10.0 0.00 0.00 0.00 56 1008.2
20260504173311 70 177 3.0 6.0 0.00 0.00 0.00 57 1008.6
20260504172808 70 166 3.0 6.0 0.00 0.00 0.00 57 1008.5
20260504172305 70 169 4.0 8.0 0.00 0.00 0.00 57 1008.7
20260504171800 70 185 4.0 7.0 0.00 0.00 0.00 61 1008.6
20260504171258 70 205 2.0 4.0 0.00 0.00 0.00 58 1008.8
20260504170755 69 214 2.0 3.0 0.00 0.00 0.00 60 1008.6
20260504170252 68 166 5.0 8.0 0.00 0.00 0.00 60 1008.4
20260504160210 66 196 2.0 2.0 0.00 0.00 0.00 62 1009.5
20260504151138 64 184 1.0 7.0 0.00 0.00 0.00 63 1009.5
20260504150636 63 204 0.0 3.0 0.00 0.00 0.00 63 1009.6
20260504150132 63 162 2.0 3.0 0.00 0.00 0.00 64 1009.6
20260504141101 61 173 3.0 6.0 0.00 0.00 0.00 64 1009.7
20260504140557 61 178 1.0 7.0 0.00 0.00 0.00 65 1009.7
20260504130522 58 196 3.0 4.0 0.00 0.00 0.00 69 1009.7
20260504110409 55 211 2.0 4.0 0.00 0.00 0.00 64 1009.9
20260504100331 53 168 0.0 1.0 0.00 0.00 0.00 68 1010.2
20260504081725 54 176 1.0 3.0 0.00 0.00 0.00 60 1010.9
20260504081221 55 164 1.0 2.0 0.00 0.00 0.00 59 1010.6
20260504080718 55 181 3.0 4.0 0.00 0.00 0.00 59 1011.0
20260504080214 55 159 2.0 4.0 0.00 0.00 0.00 60 1010.9
20260504070142 56 193 2.0 6.0 0.00 0.00 0.00 56 1011.0
20260504050531 55 165 0.0 2.0 0.00 0.00 0.00 57 1012.6
20260504045525 55 191 2.0 6.0 0.00 0.00 0.00 56 1012.6
20260504045020 55 168 2.0 3.0 0.00 0.00 0.00 57 1012.5
20260504044518 55 164 2.0 3.0 0.00 0.00 0.00 57 1012.6
20260504044014 55 149 3.0 4.0 0.00 0.00 0.00 56 1012.7
20260504043511 54 165 2.0 3.0 0.00 0.00 0.00 58 1012.7
20260504043009 54 167 1.0 2.0 0.00 0.00 0.00 59 1012.9
20260504042505 54 175 1.0 1.0 0.00 0.00 0.00 60 1012.9
20260504042003 53 170 1.0 2.0 0.00 0.00 0.00 61 1012.7
20260504041458 53 179 2.0 2.0 0.00 0.00 0.00 61 1012.9
20260504040954 53 164 0.0 2.0 0.00 0.00 0.00 62 1012.9
20260504040452 53 164 0.0 1.0 0.00 0.00 0.00 65 1013.0
20260504035948 53 162 0.0 2.0 0.00 0.00 0.00 61 1013.1
20260504035446 53 163 2.0 2.0 0.00 0.00 0.00 61 1013.2
20260504034942 53 170 0.0 1.0 0.00 0.00 0.00 62 1013.2
20260504034440 53 170 0.0 2.0 0.00 0.00 0.00 61 1013.1
20260504033937 53 176 0.0 1.0 0.00 0.00 0.00 61 1013.3
20260504033434 53 171 0.0 2.0 0.00 0.00 0.00 62 1013.4
20260504032931 53 170 0.0 0.0 0.00 0.00 0.00 61 1013.2
20260504032428 53 174 0.0 1.0 0.00 0.00 0.00 61 1013.4
20260504031925 53 174 1.0 2.0 0.00 0.00 0.00 60 1013.5
20260504031422 53 175 0.0 1.0 0.00 0.00 0.00 61 1013.3
20260504030919 54 175 0.0 2.0 0.00 0.00 0.00 60 1013.5
20260504030416 54 155 0.0 1.0 0.00 0.00 0.00 59 1013.2
20260504025912 54 161 0.0 2.0 0.00 0.00 0.00 59 1013.7
20260504025409 54 167 1.0 1.0 0.00 0.00 0.00 59 1013.5
20260504024905 54 182 0.0 0.0 0.00 0.00 0.00 59 1013.4
20260504024402 54 182 0.0 1.0 0.00 0.00 0.00 64 1013.5
20260504023859 55 182 0.0 1.0 0.00 0.00 0.00 57 1013.6
20260504023356 55 181 0.0 1.0 0.00 0.00 0.00 57 1013.7
20260504022851 55 182 0.0 0.0 0.00 0.00 0.00 56 1013.6
20260504022348 56 181 0.0 2.0 0.00 0.00 0.00 55 1013.8
20260504021845 56 163 1.0 1.0 0.00 0.00 0.00 55 1013.6
20260504021342 56 170 1.0 1.0 0.00 0.00 0.00 53 1013.6
20260504020839 56 168 1.0 3.0 0.00 0.00 0.00 53 1013.5
20260504020336 56 173 1.0 1.0 0.00 0.00 0.00 53 1013.5
20260504015832 57 178 2.0 2.0 0.00 0.00 0.00 52 1013.4
20260504015328 57 159 1.0 3.0 0.00 0.00 0.00 51 1013.3
20260504014824 57 167 2.0 2.0 0.00 0.00 0.00 50 1013.4
20260504014320 57 152 2.0 4.0 0.00 0.00 0.00 50 1013.1
20260504013819 57 165 2.0 3.0 0.00 0.00 0.00 48 1013.4
20260504013316 58 161 0.0 3.0 0.00 0.00 0.00 48 1013.1
20260504012812 58 168 3.0 4.0 0.00 0.00 0.00 47 1013.2
20260504012310 58 168 2.0 3.0 0.00 0.00 0.00 45 1013.4
20260504011808 58 160 2.0 2.0 0.00 0.00 0.00 45 1013.2
20260504011304 58 148 4.0 6.0 0.00 0.00 0.00 44 1013.1
20260504010800 58 195 1.0 3.0 0.00 0.00 0.00 44 1013.2
20260504010255 58 175 2.0 4.0 0.00 0.00 0.00 43 1013.2
20260504005753 59 209 1.0 3.0 0.00 0.00 0.00 43 1013.3
20260504005249 59 164 2.0 3.0 0.00 0.00 0.00 43 1013.2
20260504004747 59 192 3.0 3.0 0.00 0.00 0.00 42 1013.1
20260504004244 59 179 2.0 4.0 0.00 0.00 0.00 42 1013.1
20260504003740 59 185 1.0 2.0 0.00 0.00 0.00 41 1013.1
20260504003238 59 177 2.0 4.0 0.00 0.00 0.00 41 1013.4
20260504002734 59 160 1.0 3.0 0.00 0.00 0.00 41 1013.1
20260504002231 59 142 1.0 2.0 0.00 0.00 0.00 44 1013.3
20260504001729 59 195 1.0 4.0 0.00 0.00 0.00 41 1013.4
20260504001226 59 181 1.0 6.0 0.00 0.00 0.00 41 1013.3
20260504000722 59 163 0.0 1.0 0.00 0.00 0.00 43 1013.3
20260504000219 59 138 2.0 2.0 0.00 0.00 0.00 41 1013.1
20260503235718 59 172 1.0 1.0 0.00 0.00 0.00 40 1013.3
20260503235214 60 163 2.0 3.0 0.00 0.00 0.00 40 1013.0
20260503234712 60 177 2.0 4.0 0.00 0.00 0.00 39 1013.2
20260503234210 60 206 2.0 2.0 0.00 0.00 0.00 40 1012.9
20260503233707 60 180 0.0 2.0 0.00 0.00 0.00 40 1013.1
20260503233202 60 172 3.0 3.0 0.00 0.00 0.00 39 1013.1
20260503232659 60 210 2.0 3.0 0.00 0.00 0.00 38 1013.1
20260503232156 60 161 2.0 2.0 0.00 0.00 0.00 40 1013.1
20260503231655 60 165 2.0 2.0 0.00 0.00 0.00 40 1013.2
20260503231151 60 184 2.0 7.0 0.00 0.00 0.00 38 1013.5
20260503230647 60 168 2.0 4.0 0.00 0.00 0.00 38 1013.7
20260503230145 60 186 4.0 7.0 0.00 0.00 0.00 38 1013.8
20260503225642 60 187 2.0 6.0 0.00 0.00 0.00 37 1013.9
20260503225142 60 150 1.0 2.0 0.00 0.00 0.00 39 1013.9
20260503224639 60 182 4.0 6.0 0.00 0.00 0.00 38 1013.9
20260503224137 61 185 0.0 6.0 0.00 0.00 0.00 39 1014.0
20260503223635 60 178 1.0 3.0 0.00 0.00 0.00 38 1014.1
20260503223131 60 197 1.0 7.0 0.00 0.00 0.00 37 1014.2
20260503222629 60 180 2.0 7.0 0.00 0.00 0.00 38 1014.4
20260503222126 61 173 1.0 6.0 0.00 0.00 0.00 37 1014.4
20260503221624 61 177 0.0 4.0 0.00 0.00 0.00 38 1014.4
20260503221121 61 203 3.0 8.0 0.00 0.00 0.00 38 1014.7
20260503220618 61 218 2.0 7.0 0.00 0.00 0.00 38 1014.6
20260503220115 63 181 4.0 7.0 0.00 0.00 0.00 36 1014.6
20260503215612 62 185 2.0 3.0 0.00 0.00 0.00 36 1014.4
20260503215108 62 222 2.0 7.0 0.00 0.00 0.00 36 1014.7
20260503214607 62 205 2.0 6.0 0.00 0.00 0.00 35 1014.8
20260503214103 63 222 4.0 6.0 0.00 0.00 0.00 35 1014.7
20260503213602 62 274 1.0 6.0 0.00 0.00 0.00 37 1014.7
20260503213058 61 186 2.0 4.0 0.00 0.00 0.00 36 1014.6
20260503212555 60 190 1.0 3.0 0.00 0.00 0.00 36 1014.6
20260503212053 60 199 3.0 7.0 0.00 0.00 0.00 37 1014.7
20260503211550 60 185 2.0 3.0 0.00 0.00 0.00 36 1014.8
20260503211045 60 199 1.0 3.0 0.00 0.00 0.00 35 1015.0
20260503210542 61 221 0.0 4.0 0.00 0.00 0.00 38 1015.3
20260503210038 60 180 0.0 3.0 0.00 0.00 0.00 41 1015.3
20260503205535 60 240 0.0 2.0 0.00 0.00 0.00 37 1015.7
20260503205031 60 215 0.0 2.0 0.00 0.00 0.00 36 1015.4
20260503204528 60 337 2.0 3.0 0.00 0.00 0.00 38 1015.8
20260503204025 60 188 1.0 2.0 0.00 0.00 0.00 38 1016.0
20260503203523 60 144 2.0 3.0 0.00 0.00 0.00 39 1016.0
20260503203020 60 191 1.0 7.0 0.00 0.00 0.00 38 1015.7
20260503202517 61 241 2.0 4.0 0.00 0.00 0.00 36 1015.5
20260503202015 61 179 2.0 4.0 0.00 0.00 0.00 35 1015.4
20260503201513 60 169 2.0 3.0 0.00 0.00 0.00 37 1015.5
20260503201010 61 1 3.0 4.0 0.00 0.00 0.00 37 1015.7
20260503200506 61 216 2.0 4.0 0.00 0.00 0.00 37 1016.1
20260503200003 60 189 2.0 3.0 0.00 0.00 0.00 37 1015.7
20260503195500 60 241 4.0 6.0 0.00 0.00 0.00 35 1015.8
20260503194956 60 201 3.0 9.0 0.00 0.00 0.00 35 1015.8
20260503194454 61 190 4.0 7.0 0.00 0.00 0.00 34 1016.2
20260503193949 61 191 3.0 6.0 0.00 0.00 0.00 35 1016.2
20260503193444 61 203 2.0 6.0 0.00 0.00 0.00 35 1016.4
20260503192940 60 203 1.0 3.0 0.00 0.00 0.00 37 1016.6
20260503192437 60 197 3.0 4.0 0.00 0.00 0.00 36 1016.7
20260503191932 62 186 2.0 2.0 0.00 0.00 0.00 36 1016.6
20260503191431 62 211 1.0 6.0 0.00 0.00 0.00 36 1016.8
20260503190926 64 185 4.0 6.0 0.00 0.00 0.00 34 1016.8